Regional Weather Roundup
Issued by NWS

Home | Current Version | Previous Version | Graphics & Text | Print | Product List | Glossary On
Versions: 1 2 3 4 5 6 7 8 9 10 11 12 13 14 15 16 17 18 19 20 21 22 23 24 25 26 27 28 29 30 31 32 33 34 35 36 37 38 39 40 41 42 43 44 45 46 47 48 49 50
000
ASUS44 KMEG 232210
RWRTN
TENNESSEE HOURLY STATE WEATHER ROUNDUP
NATIONAL WEATHER SERVICE MEMPHIS TN
500 PM CDT MON APR 23 2018

TNZ002-004-019-021-049-052-054-088>092-232300-
WEST TENNESSEE

CITY           SKY/WX    TMP DP  RH WIND       PRES   REMARKS
MEMPHIS INTL   CLOUDY    57  56  96 NW6       29.88R
NWS MEMPHIS      N/A     56 N/A N/A MISG        N/A
JACKSON        LGT RAIN  58  57  97 W7        29.89R
DYERSBURG      LGT RAIN  57  56  96 W6        29.89R
SOMERVILLE     MOSUNNY   59  57  94 S6G12     29.87R FOG
COVINGTON      CLOUDY    57  55  94 NW5       29.89R FOG
UNION CITY     CLOUDY    63  57  82 W7        29.88S
BOLIVAR        PTSUNNY   61  55  82 SW5       29.88S
PARIS          CLOUDY    59  57  94 E8        29.88R
HUNTINGDON     CLOUDY    66  54  63 W7        29.87R
LEXINGTON      MOSUNNY   64  55  72 W8        29.87R
SELMER         CLOUDY    61  55  82 MISG      29.87R
SAVANNAH       PTSUNNY   61  59  94 CALM      29.87R
$$

TNZ008-025-027-028-033-062-065-066-232300-
NORTH MIDDLE TENNESSEE

CITY           SKY/WX    TMP DP  RH WIND       PRES   REMARKS
NASHVILLE      CLOUDY    61  58  90 E9        29.89S
PORTLAND       CLOUDY    57  55  94 N3        29.92S
CLARKSVILLE    FAIR      67  52  58 E8        29.88R
SMYRNA         LGT RAIN  60  58  92 E7        29.91R
COOKEVILLE     MOSUNNY   59  55  88 E7        29.92S
LIVINGSTON     MOCLDY    55  54  94 CALM      29.94S FOG
GALLATIN       PTSUNNY   59  57  94 VRB6      29.94S FOG
CROSSVILLE     CLOUDY    54  51  90 E8        29.95F
ROCKWOOD       CLOUDY    54  52  94 E7G15     29.95F
$$

TNZ061-075-076-078-094-096-097-232300-
SOUTH MIDDLE TENNESSEE

CITY           SKY/WX    TMP DP  RH WIND       PRES   REMARKS
LEWISBURG      CLOUDY    66  50  55 S5        29.86F
FAYETTEVILLE   CLOUDY    63  57  82 E8        29.87S
TULLAHOMA      PTSUNNY   61  55  82 NE6       29.89S
WINCHESTER     CLOUDY    59  57  94 CALM      29.89S
MCMINNVILLE    FOG       59  57  94 CALM      29.92R VSB 1
COLUMBIA       PTSUNNY   64  55  72 SW9       29.87R
SHELBYVILLE    CLOUDY    59  57  94 E6        29.89R
$$

TNZ017-018-042-046-047-232300-
NORTHEAST TENNESSEE

CITY           SKY/WX    TMP DP  RH WIND       PRES   REMARKS
TRI CITIES     PTSUNNY   62  49  62 SE16G30   30.07F
ELIZABETHTON   FAIR      59  48  67 E18G25    30.08F
$$

TNZ012-013-036-069-073-074-232300-
CENTRAL EAST TENNESSEE

CITY           SKY/WX    TMP DP  RH WIND       PRES   REMARKS
KNOXVILLE      RAIN      58  57  97 NE8       29.94F FOG
OAK RIDGE      CLOUDY    57  56  96 VRB5      29.97F
DOWNTOWN KNOXV SUNNY     59  57  94 CALM      29.95F FOG
GATLINBURG     CLOUDY    64  48  55 E12G17    29.95S
MORRISTOWN     CLOUDY    63  50  63 E15G21    29.98F
JACKSBORO      MOSUNNY   55  54  94 CALM      30.02F
$$

TNZ083-085-099-232300-
SOUTHEAST TENNESSEE

CITY           SKY/WX    TMP DP  RH WIND       PRES   REMARKS
CHATTANOOGA    CLOUDY    61  57  87 N10       29.88F
DAYTON         CLOUDY    59  59 100 NE7       29.91F
$$

SKY/WX REPORTED AS FAIR MEANS FEW OR NO CLOUDS BELOW
12 THOUSAND FEET.




USA.gov is the U.S. government's official web portal to all federal, state and local government web resources and services.